Tracking 18945 objects as of 19-Jan-2018
HD Live streaming from Space Station
objects crossing your sky now

FENGYUN 1C DEB

Track FENGYUN 1C DEB now!
10-day predictions


NORAD ID: 31513
Int'l Code: 1999-025BXC
Perigee: 828.2 km
Apogee: 880.2 km
Inclination: 99.0 °
Period: 101.9 minutes
Semi major axis: 7225 km
RCS: 0.0086 m2 (small)
Launch date: May 10, 1999
Source: People's Republic of China (PRC)
Launch site: Taiyaun Space Center, China (TSC)

Note: This is SATELLITE DEBRIS
aabbcc
Your satellite tracking list
Your tracking list is empty




NASA's NSSDC Master Catalog

Two Line Element Set (TLE):
1 31513U 99025BXC 18018.35351563  .00000672  00000-0  37804-3 0  9997
2 31513  98.9882  64.0377 0036035  86.1026 274.4264 14.13604716551155
Source of the keplerian elements: AFSPC